Monroe, NC

8:18 PM EDT on August 21, 2017 (GMT -0400)
Monroe

Weather History for KEQY - June, 2014

Change the Weather History Date:

Saturday, June 7, 2014

  Actual Average (KCLT) Record (KCLT)
Temperature  
Mean Temperature 76 °F -  
Max Temperature 84 °F 83 °F 97 °F (1899)
Min Temperature 71 °F 62 °F 45 °F (2000)
Cooling Degree Days 12    
Growing Degree Days 26 (Base 50)    
Moisture  
Dew Point 65 °F    
Average Humidity 73    
Maximum Humidity 90    
Minimum Humidity 51    
Precipitation  
Precipitation 0.00 in - - ()
Sea Level Pressure  
Sea Level Pressure 29.98 in    
Wind  
Wind Speed 5 mph (ENE)    
Max Wind Speed 8 mph    
Max Gust Speed -    
Visibility 9 miles    
Events      
Averages and records for this station are not official NWS values.
T = Trace of Precipitation, MM = Missing Value Source: NWS Daily Summary

Daily Weather History Graph

Daily Weather History Graph

Search for Another Location

Airport or City:

Trip Planner

Search our weather history database for the weather conditions in past years. The results will help you decide how hot, cold, wet, or windy it might be!

Date:

Astronomy

Jun. 07, 2014 Rise Set
Actual Time 6:08 AM EDT 8:34 PM EDT
Civil Twilight 5:38 AM EDT 9:04 PM EDT
Nautical Twilight 5:02 AM EDT 9:40 PM EDT
Astronomical Twilight 4:22 AM EDT 10:20 PM EDT
Moon 3:02 PM EDT (6/7) 2:16 AM EDT (6/7)
Length of Visible Light 15h 25m
Length of Day
14h 26m
Waxing Gibbous, 67% of the Moon is Illuminated
Jun 7
Waxing Gibbous
Jun 13
Full
Jun 19
Last Quarter
Jun 27
New
Jul 5
First Quarter

Hourly Weather History & Observations

Time (EDT) Temp. Heat Index Dew Point Humidity Pressure Visibility Wind Dir Wind Speed Gust Speed Precip Events Conditions
12:53 AM 73.9 °F - 64.0 °F 71% 29.94 in 10.0 mi ENE 8.1 mph - N/A   Scattered Clouds
1:53 AM 73.0 °F - 66.0 °F 79% 29.94 in 10.0 mi Variable 3.5 mph - N/A   Mostly Cloudy
2:16 AM 72.0 °F - 66.0 °F 81% 29.93 in 10.0 mi Variable 4.6 mph - N/A   Mostly Cloudy
2:39 AM 72.0 °F - 66.9 °F 84% 29.94 in 10.0 mi ENE 5.8 mph - N/A   Mostly Cloudy
2:53 AM 72.0 °F - 66.9 °F 84% 29.94 in 10.0 mi ENE 4.6 mph - N/A   Overcast
3:53 AM 71.1 °F - 68.0 °F 90% 29.93 in 8.0 mi ENE 4.6 mph - N/A   Overcast
4:37 AM 71.1 °F - 68.0 °F 90% 29.93 in 7.0 mi ENE 5.8 mph - N/A   Overcast
5:17 AM 71.1 °F - 68.0 °F 90% 29.93 in 9.0 mi East 4.6 mph - N/A   Overcast
5:53 AM 71.1 °F - 68.0 °F 90% 29.95 in 9.0 mi East 4.6 mph - N/A   Overcast
6:28 AM 71.1 °F - 68.0 °F 90% 29.98 in 5.0 mi ENE 5.8 mph - N/A   Overcast
6:53 AM 71.1 °F - 68.0 °F 90% 29.98 in 4.0 mi ENE 3.5 mph - N/A   Overcast
7:53 AM 71.1 °F - 68.0 °F 90% 30.00 in 5.0 mi ENE 6.9 mph - N/A   Overcast
9:40 AM 73.0 °F - 66.9 °F 81% 30.03 in 10.0 mi East 4.6 mph - N/A   Overcast
10:53 AM 75.9 °F - 66.9 °F 74% 30.02 in 10.0 mi Variable 5.8 mph - N/A   Mostly Cloudy
11:00 AM 77.0 °F - 66.9 °F 71% 30.03 in 10.0 mi Variable 4.6 mph - N/A   Overcast
11:24 AM 75.9 °F - 66.0 °F 71% 30.03 in 10.0 mi Variable 4.6 mph - N/A   Overcast
11:53 AM 79.0 °F - 66.0 °F 64% 30.02 in 10.0 mi Variable 5.8 mph - N/A   Mostly Cloudy
12:53 PM 80.1 °F 82.1 °F 66.0 °F 62% 30.01 in 10.0 mi East 6.9 mph - N/A   Overcast
1:53 PM 81.0 °F 81.9 °F 62.1 °F 52% 30.00 in 10.0 mi East 6.9 mph - N/A   Mostly Cloudy
2:53 PM 81.0 °F 81.9 °F 62.1 °F 52% 29.98 in 10.0 mi ENE 5.8 mph - N/A   Overcast
3:53 PM 82.0 °F 83.0 °F 62.1 °F 51% 29.97 in 10.0 mi East 5.8 mph - N/A   Mostly Cloudy
4:53 PM 82.0 °F 83.1 °F 63.0 °F 52% 29.96 in 10.0 mi ENE 5.8 mph - N/A   Mostly Cloudy
5:53 PM 82.0 °F 83.0 °F 62.1 °F 51% 29.96 in 10.0 mi Variable 4.6 mph - N/A   Overcast
6:53 PM 82.0 °F 83.0 °F 62.1 °F 51% 29.96 in 10.0 mi Variable 3.5 mph - N/A   Clear
7:53 PM 78.1 °F - 63.0 °F 60% 29.96 in 10.0 mi Calm Calm - N/A   Partly Cloudy
8:53 PM 73.9 °F - 63.0 °F 68% 29.98 in 10.0 mi Calm Calm - N/A   Scattered Clouds
9:53 PM 72.0 °F - 61.0 °F 68% 29.99 in 10.0 mi Calm Calm - N/A   Clear
10:53 PM 73.0 °F - 62.1 °F 68% 30.00 in 10.0 mi South 4.6 mph - N/A   Clear
11:53 PM 72.0 °F - 66.0 °F 81% 30.00 in 10.0 mi Variable 4.6 mph - N/A   Partly Cloudy